Regional Weather Roundup
Issued by NWS Midland/Odessa, TX

Skip options and go directly to product.
Home | Oldest Version | Next Version | Current Version | All | Text Only | Save Text | Print | Product List | Glossary On

Skip product version selection by date and time.   
558
ASUS44 KMAF 020210
RWRMAF
MIDLAND AREA WEATHER ROUNDUP
NATIONAL WEATHER SERVICE MIDLAND TX
900 PM CDT TUE SEP 01 2015

...IN SOUTHWEST TEXAS AND SOUTHEAST NEW MEXICO...

CITY           SKY/WX    TMP DP  RH WIND       PRES   REMARKS
ALPINE         CLEAR     81  53  37 SE10      30.15R
ANDREWS        FAIR      78  54  42 SE3       30.04R
ARTESIA        CLEAR     86  52  30 SE13      30.01R
BIG SPRING     CLEAR     80  50  35 E8        30.03R
CARLSBAD       CLEAR     88  49  25 SE12      29.98R
DRYDEN           N/A     87  53  31 VRB5      29.97R
FORT STOCKTON  CLEAR     85  51  31 SE12      30.02R
GUAD PASS      CLEAR     80  47  31 E22       30.16R
HOBBS          CLEAR     77  50  38 SE6       30.06R
MARFA          CLEAR     73  43  33 NE8       30.13R
MIDLAND AIRPK  CLEAR     88  50  27 SE6       30.02R
MIDLAND INTL   CLEAR     85  52  32 SE9       30.01R
ODESSA         CLEAR     85  51  31 SE8       30.03R
PECOS          CLEAR     86  49  28 E9        29.97R
PRESIDIO       NOT AVBL
SEMINOLE       CLEAR     79  49  35 SE7       30.05R
SNYDER         CLEAR     83  55  39 SE7       30.02R
WINK           CLEAR     87  51  28 SE10      29.98R
$$
...OTHER STATIONS IN TEXAS...

CITY           SKY/WX    TMP DP  RH WIND       PRES   REMARKS
ABILENE        CLEAR     84  59  42 SE10      30.00R
AMARILLO       PTCLDY    81  54  39 S15       30.04R
AUSTIN         PTCLDY    81  65  58 SE10      30.00R
BROWNSVILLE    PTCLDY    80  75  84 E9        29.95R
CORPUS CHRISTI PTCLDY    80  73  79 SE10      29.96S
DALLAS FTW     PTCLDY    87  64  46 SE13      29.99R
DEL RIO        CLEAR     89  59  36 E6        29.91R
EL PASO        MOCLDY    90  41  18 SW7       29.99R
HOUSTON INT    CLOUDY    75  71  87 SE5       30.02S
LUBBOCK        PTCLDY    80  55  42 SE9       30.04R
SAN ANGELO     PTCLDY    83  57  41 E6        29.98R
SAN ANTONIO    PTCLDY    83  67  58 SE20G26   29.99R
WACO           CLEAR     84  64  50 SE10      30.00R
WICHITA FALLS  NOT AVBL
$$
...OTHER LOCATIONS IN NEW MEXICO...

CITY           SKY/WX    TMP DP  RH WIND       PRES   REMARKS
ALAMAGORDO     PTCLDY    84  41  21 CALM      30.02S
ALBUQUERQUE    MOCLDY    80  45  28 S10       30.13S
CANNON AFB     PTCLDY    80  51  37 S10       30.07R
CLOVIS         PTCLDY    81  48  32 S12       30.09R
HOLLOMAN AFB   MOCLDY    90  40  17 NW3       30.00R
ROSWELL        PTCLDY    87  51  28 S9        30.01R
RUIDOSO        PTCLDY    72  41  33 MISG      30.27R
SANTA FE       PTCLDY    76  39  26 SW9       30.20R
TRUTH OR CONSE MOCLDY    81  48  31 N5        30.08S
TUCUMCARI      MOCLDY    80  52  37 N12       30.03R
$$

USA.gov is the U.S. government's official web portal to all federal, state and local government web resources and services.